Regional Weather Roundup
Issued by NWS

Home | Current Version | Previous Version | Graphics & Text | Print | Product List | Glossary On
Versions: 1 2 3 4 5 6 7 8 9 10 11 12 13 14 15 16 17 18 19 20 21 22 23 24 25 26 27
000
ASUS45 KCYS 150610
RWRWY

WYOMING REGIONAL WEATHER ROUNDUP
NATIONAL WEATHER SERVICE CHEYENNE WY
1200 AM MDT TUE APR 15 2014

NOTE:  "FAIR" INDICATES FEW OR NO CLOUDS BELOW 12,000 FEET
WITH NO SIGNIFICANT WEATHER AND/OR OBSTRUCTIONS TO VISIBILITY.

WYZ001-150700-
YELLOWSTONE NATIONAL PARK

CITY           SKY/WX    TMP DP  RH WIND       PRES   REMARKS
LK YELLOWSTONE   N/A     18   9  68 CALM      30.12F
6HR MIN TEMP:  18; 6HR MAX TEMP:  37;

W YELLOWSTONE  NOT AVBL

$$
WYZ002>013-054>058-071-098>099-150700-
NORTHERN WYOMING

CITY           SKY/WX    TMP DP  RH WIND       PRES   REMARKS
JACKSON        CLEAR     32   9  37 CALM      30.12F
CODY           MOCLDY    45  10  24 W15G21    29.95F
GREYBULL       CLEAR     33  25  72 SE3       30.00F
6HR MIN TEMP:  33; 6HR MAX TEMP:  43;

WORLAND        CLEAR     33  23  66 SE8       30.00F WCI  26
6HR MIN TEMP:  33; 6HR MAX TEMP:  45;

SHERIDAN       PTCLDY    36  20  52 S6        29.90F WCI  31
6HR MIN TEMP:  32; 6HR MAX TEMP:  44;

BUFFALO        PTCLDY    36  16  44 S12       29.94F WCI  28
6HR MIN TEMP:  32; 6HR MAX TEMP:  41;

GILLETTE       CLEAR     34  17  50 SW16      29.94F WCI  24
6HR MIN TEMP:  34; 6HR MAX TEMP:  45;

HULETT         FAIR      30  21  69 SW6       29.96  WCI  24
NEWCASTLE      FAIR      28  19  69 NE3       30.00

$$
WYZ014>020-022>026-101>103-150700-
CENTRAL WYOMING

CITY           SKY/WX    TMP DP  RH WIND       PRES   REMARKS
BIG PINEY      PTCLDY    26  17  68 E6        30.16F WCI  19
6HR MIN TEMP:  24; 6HR MAX TEMP:  45;

PINEDALE       PTCLDY    21  19  93 NW3       30.17S
DUBOIS         FAIR      32   3  29 N10       30.07F WCI  24
LANDER         PTCLDY    35  18  49 CALM      30.02F
6HR MIN TEMP:  32; 6HR MAX TEMP:  45;

RIVERTON       CLEAR     35  14  42 W13       30.04F WCI  26
6HR MIN TEMP:  34; 6HR MAX TEMP:  45;

CASPER         PTCLDY    32  20  61 SW9       30.01F WCI  24
6HR MIN TEMP:  30; 6HR MAX TEMP:  43;

DOUGLAS        CLEAR     26  18  71 SE7       30.03F WCI  18
6HR MIN TEMP:  25; 6HR MAX TEMP:  38;


$$
WYZ021-027>030-104>119-150700-
SOUTHERN WYOMING

CITY           SKY/WX    TMP DP  RH WIND       PRES   REMARKS
EVANSTON       CLEAR     31   5  33 SW10      30.19F WCI  22
6HR MIN TEMP:  30; 6HR MAX TEMP:  46;

FORT BRIDGER   FAIR      36   1  22 SW17      30.22S WCI  25
ROCK SPRINGS   PTCLDY    34   7  32 SW10      30.15F WCI  26
6HR MIN TEMP:  34; 6HR MAX TEMP:  47;

DIXON          FAIR      28  19  69 CALM      30.22S
RAWLINS        CLEAR     32  16  51 SW15      30.12F WCI  22
6HR MIN TEMP:  31; 6HR MAX TEMP:  40;

SARATOGA       FAIR      27  19  74 SE8       30.15F WCI  18
LARAMIE        CLEAR     24  15  68 SW17      30.08F WCI  11
6HR MIN TEMP:  23; 6HR MAX TEMP:  31;

CHEYENNE       CLEAR     28  18  66 SW13      30.07F WCI  17
6HR MIN TEMP:  27; 6HR MAX TEMP:  35;

TORRINGTON     CLEAR     24  21  88 E6        30.06F WCI  17
6HR MIN TEMP:  24; 6HR MAX TEMP:  42;

PINE BLUFFS    FAIR      28  21  74 S13       30.09F WCI  18

$$



USA.gov is the U.S. government's official web portal to all federal, state and local government web resources and services.